Location: Arrien
(43.3167°N, 0.1500°W)
Time: 04:41:30
(UTC+00:00)

Cosmos 1908 - Pass Details

Date: 15 October 2021
Orbit: 509 x 528 km, 82.5° (Epoch: 02 December)

Event Time Altitude Azimuth Distance (km) Brightness Sun altitude
Rises 17:53:08 0° 161° (SSE) 2,654 6.7 -7.3°
Reaches altitude 10° 17:55:29 10° 149° (SSE) 1,769 5.7 -7.7°
Maximum altitude 17:58:48 28° 90° (E) 1,022 4.1 -8.3°
Drops below altitude 10° 18:02:09 10° 31° (NNE) 1,776 5.6 -8.9°
Sets 18:04:30 0° 20° (NNE) 2,668 6.6 -9.3°
